Location: Alma
(38.7220°N, 88.9090°W)
Time: 09:10:49
(UTC-06:00)

Vanguard 2 Rocket - Pass Details

Date: 17 November 2019
Orbit: 554 x 3326 km, 32.9° (Epoch: 05 December)

Event Time Altitude Azimuth Distance (km) Brightness Sun altitude
Rises 02:42:06 0° 252° (WSW) 2,921 - -46.2°
Reaches altitude 10° 02:44:06 10° 246° (WSW) 2,156 - -45.8°
Maximum altitude 02:48:49 50° 171° (S) 1,153 - -44.9°
Exits shadow 02:52:31 26° 110° (ESE) 2,048 8.9 -44.2°
Drops below altitude 10° 02:56:27 10° 99° (E) 3,458 10.4 -43.4°
Sets 03:00:29 0° 95° (E) 4,907 11.4 -42.7°
